Weather History for Minot, ND

Change the Weather History Date:

Wednesday, June 26, 2013

  Actual Average Record
Temperature  
Mean Temperature 73 °F 67 °F  
Max Temperature 84 °F 78 °F 99 °F (1910)
Min Temperature 61 °F 56 °F 39 °F (1968)
Cooling Degree Days 8 3  
Month to date cooling degree days 42 57  
Year to date cooling degree days 52 73  
Since 1 June cooling degree days 42 57  
Growing Degree Days 22 (Base 50)    
Moisture  
Dew Point 58 °F    
Average Humidity 69    
Maximum Humidity 100    
Minimum Humidity 37    
Precipitation  
Precipitation 0.00 in 0.11 in 1.91 in (1978)
Month to date precipitation 4.60 3.12  
Year to date precipitation 12.97 8.51  
Sea Level Pressure  
Sea Level Pressure 29.74 in    
Wind  
Wind Speed 11 mph (WSW)    
Max Wind Speed 24 mph    
Max Gust Speed 31 mph    
Visibility 10 miles    
Events      
T = Trace of Precipitation, MM = Missing Value Source: NWS Daily Summary

Daily Weather History Graph

Daily Weather History Graph

Search for Another Location

Airport:

Trip Planner

Search our weather history database for the weather conditions in past years. The results will help you decide how hot, cold, wet, or windy it might be!

Date:

Astronomy

Jun. 26, 2013 Rise Set
Actual Time 5:46 AM CDT 9:49 PM CDT
Civil Twilight 5:04 AM CDT 10:31 PM CDT
Nautical Twilight 4:06 AM CDT 11:29 PM CDT
Astronomical Twilight 2:21 AM CDT 1:13 AM CDT
Moon 11:51 PM CDT 9:59 AM CDT
Length of Visible Light 17h 27m
Length of Day
16h 03m
Waning Gibbous, 85% of the Moon is Illuminated
Jun 26
Waning Gibbous
Jun 29
Last Quarter
Jul 8
New
Jul 15
First Quarter
Jul 22
Full

Hourly Weather History & Observations

Time (CDT) Temp. Heat Index Dew Point Humidity Pressure Visibility Wind Dir Wind Speed Gust Speed Precip Events Conditions
12:54 AM 64.0 °F - 63.0 °F 96% 29.66 in 10.0 mi WNW 5.8 mph - N/A   Clear
1:54 AM 63.0 °F - 61.0 °F 93% 29.69 in 9.0 mi North 3.5 mph - N/A   Clear
2:27 AM 62.6 °F - 60.8 °F 94% 29.72 in 10.0 mi Calm Calm - N/A   Mostly Cloudy
2:38 AM 64.4 °F - 60.8 °F 88% 29.72 in 10.0 mi WNW 3.5 mph - N/A   Scattered Clouds
2:54 AM 62.1 °F - 61.0 °F 96% 29.70 in 10.0 mi Calm Calm - N/A   Partly Cloudy
3:09 AM 64.4 °F - 60.8 °F 88% 29.71 in 10.0 mi West 3.5 mph - N/A   Mostly Cloudy
3:54 AM 64.0 °F - 62.1 °F 93% 29.68 in 10.0 mi WSW 4.6 mph - N/A   Overcast
4:22 AM 62.6 °F - 60.8 °F 94% 29.71 in 10.0 mi SSW 4.6 mph - N/A   Scattered Clouds
4:54 AM 62.1 °F - 61.0 °F 96% 29.69 in 8.0 mi SW 6.9 mph - N/A   Clear
5:54 AM 61.0 °F - 60.1 °F 97% 29.70 in 6.0 mi SW 5.8 mph - N/A   Clear
6:54 AM 62.1 °F - 59.0 °F 90% 29.71 in 10.0 mi SW 9.2 mph - N/A   Clear
7:54 AM 66.0 °F - 59.0 °F 78% 29.72 in 10.0 mi SW 9.2 mph - N/A   Clear
8:54 AM 72.0 °F - 59.0 °F 64% 29.73 in 10.0 mi SW 12.7 mph - N/A   Clear
9:54 AM 73.9 °F - 59.0 °F 59% 29.73 in 10.0 mi WSW 10.4 mph - N/A   Clear
10:54 AM 75.0 °F - 60.1 °F 60% 29.74 in 10.0 mi West 12.7 mph 17.3 mph N/A   Scattered Clouds
11:54 AM 75.9 °F - 57.9 °F 54% 29.75 in 10.0 mi West 13.8 mph 20.7 mph N/A   Clear
12:54 PM 78.1 °F - 59.0 °F 52% 29.76 in 10.0 mi WNW 10.4 mph - N/A   Clear
1:54 PM 80.1 °F 80.1 °F 55.0 °F 42% 29.76 in 10.0 mi WNW 9.2 mph - N/A   Partly Cloudy
2:54 PM 82.0 °F 81.3 °F 54.0 °F 38% 29.75 in 10.0 mi WSW 13.8 mph 19.6 mph N/A   Partly Cloudy
3:54 PM 82.9 °F 81.8 °F 53.1 °F 36% 29.75 in 10.0 mi WSW 16.1 mph 23.0 mph N/A   Partly Cloudy
4:54 PM 82.0 °F 81.4 °F 55.0 °F 39% 29.76 in 10.0 mi West 16.1 mph 24.2 mph N/A   Mostly Cloudy
5:54 PM 80.1 °F 79.9 °F 53.1 °F 39% 29.76 in 10.0 mi West 16.1 mph 28.8 mph N/A   Partly Cloudy
6:54 PM 79.0 °F - 50.0 °F 36% 29.77 in 10.0 mi West 18.4 mph 28.8 mph N/A   Partly Cloudy
7:54 PM 77.0 °F - 54.0 °F 45% 29.78 in 10.0 mi WSW 16.1 mph 21.9 mph N/A   Clear
8:54 PM 75.9 °F - 53.1 °F 45% 29.78 in 10.0 mi WSW 15.0 mph - N/A   Clear
9:54 PM 72.0 °F - 54.0 °F 53% 29.80 in 10.0 mi WSW 10.4 mph - N/A   Clear
10:54 PM 70.0 °F - 54.0 °F 57% 29.83 in 10.0 mi WSW 11.5 mph - N/A   Clear
11:54 PM 69.1 °F - 54.0 °F 58% 29.84 in 10.0 mi WSW 11.5 mph - N/A   Clear